Flag for Poland Weather past 2 weeks in Kielce, Poland

Now
30 °F

Fog.


Feels Like: 30 °F
Forecast: 31 / 39 °F
Wind: 2 mph from North

Location: Kielce

Current Time: Mar 6, 2015 at 12:33:03 AM

Latest Report: Mar 5, 2015 at 11:00 PM


Visibility: 1 mi

Pressure: 30.49 "Hg

Humidity: 97%

Dew point: 29 °F

Location of KielceLocation

Historic Weather in Kielce — Graph

°F

Kielce temperature yesterday

Maximum temperature yesterday: 40 °F (at 1:00 PM)
Minimum temperature yesterday: 26 °F (at 6:00 AM)
Average temperature yesterday: 33 °F

Past Weeks' High & Low Weather Summary

 TemperatureHumidityPressure
High53 °F (Feb 22, 2:00 PM)100% (Feb 27, 1:00 AM)30.62 "Hg (Feb 27, 1:00 AM)
Low25 °F (Feb 22, 6:00 AM)45% (Feb 20, 3:00 PM)29.53 "Hg (Mar 2, 2:00 PM)
Average37 °F85%29.99 "Hg
* Reported Feb 18 9:00 PM — Mar 5 9:00 PM, Kielce, Weather by CustomWeather, © 2015

Note: Actual official high and low records may vary slightly from our data, if they occured in-between our weather recording intervals... More about our weather records

Advertising

Kielce weather history for previous 24 hours

 ConditionsComfort  
Time TempWeatherWind HumidityBarometerVisibility
9:00 PM
Thu, Mar 5
33 °FFog.2 mph94%30.47 "Hg2 mi
8:00 PM33 °FFog.1 mph93%30.45 "Hg2 mi
7:00 PM33 °FOvercast.2 mph94%30.44 "Hg4 mi
6:00 PM34 °FLight mixture of precip. Overcast.2 mph94%30.42 "Hg2 mi
5:00 PM35 °FSleet. Overcast.5 mph87%30.40 "Hg2 mi
4:00 PM35 °FOvercast.5 mph90%30.39 "Hg7 mi
3:00 PM35 °FSleet. Overcast.5 mph79%30.39 "Hg1 mi
2:00 PM37 °FSleet. Overcast.5 mph78%30.37 "Hg2 mi
1:00 PM40 °FOvercast.2 mph75%30.36 "Hg10 mi
12:00 PM38 °FSprinkles. Low clouds.3 mph79%30.37 "Hg8 mi
11:00 AM38 °FSprinkles. Overcast.2 mph77%30.37 "Hg9 mi
10:00 AM37 °FPartly sunny.3 mph81%30.37 "Hg8 mi
9:00 AM34 °FSnow flurries. Overcast.2 mph92%30.37 "Hg4 mi
8:00 AM30 °FFog.1 mph98%30.35 "Hg3 mi
7:00 AM27 °FScattered clouds.1 mph97%30.34 "Hg2 mi
6:00 AM26 °FPassing clouds.1 mph96%30.34 "Hg2 mi
5:00 AM27 °FFog.1 mph97%30.34 "Hg2 mi
3:00 AM28 °FFog.1 mph97%30.33 "Hg3 mi
2:00 AM28 °FFog.No wind97%30.33 "Hg3 mi
1:00 AM28 °FFog.No wind97%30.32 "Hg4 mi
12:00 AM28 °FFog.1 mph96%30.31 "Hg5 mi
Weather by CustomWeather, © 2015

See weather overviewHow to use our weather pages